AirNav   Air Wisconsin Up To $57,000 Bonus
 
 1190 users online  

31E Eagles Nest Airport
West Creek, New Jersey, USA

GOING TO WEST CREEK?


FAA INFORMATION EFFECTIVE 15 JULY 2021

Location

FAA Identifier: 31E
Lat/Long: 39-39-55.6350N 074-18-28.9600W
39-39.927250N 074-18.482667W
39.6654542,-74.3080444
(estimated)
Elevation: 38.6 ft. / 12 m (estimated)
Variation: 12W (1985)
From city: 2 miles N of WEST CREEK, NJ
Time zone: UTC -4 (UTC -5 during Standard Time)
Zip code: 08092

Airport Operations

Airport use: Open to the public
Activation date: 04/1989
Control tower: no
ARTCC: WASHINGTON CENTER
FSS: MILLVILLE FLIGHT SERVICE STATION
NOTAMs facility: MIV (NOTAM-D service available)
Attendance: NOV-MAR 7 SR-SS, APR-OCT 7 0900-1700
Wind indicator: yes
Segmented circle: no
Lights: ACTVT PAPI RWY 14 & 32; HIRL RWY 14/32 - CTAF.
Beacon: white-green (lighted land airport)
Operates sunset to sunrise.

Airport Communications

CTAF: 122.9
ATLANTIC CITY APPROACH: 134.25
ATLANTIC CITY DEPARTURE: 134.25
WX AWOS-3PT at MJX (16 nm N): 119.875 (732-797-2542)
WX ASOS at ACY (18 nm SW): PHONE 609-272-9311

Nearby radio navigation aids

VOR radial/distance  VOR name  Freq  Var
CYNr158/10.7COYLE VORTAC113.4010W
ACYr055/17.7ATLANTIC CITY VORTAC108.6010W
GXUr159/24.5MC GUIRE VORTAC110.6012W
VCNr086/31.4CEDAR LAKE VOR/DME115.2010W
RBVr175/33.3ROBBINSVILLE VORTAC113.8010W
COLr201/39.4COLTS NECK VOR/DME115.4011W

 
NDB name  Hdg/Dist  Freq  Var  ID
LAKEHURST188/22.839611WNEL -. . .-..

Airport Services

Fuel available: 100LL
Parking: tiedowns
Airframe service: MAJOR
Powerplant service: MAJOR
Bottled oxygen: NONE
Bulk oxygen: NONE

Runway Information

Runway 14/32

Dimensions: 3670 x 60 ft. / 1119 x 18 m
Surface: asphalt, in good condition
Runway edge lights: high intensity
RUNWAY 14  RUNWAY 32
Latitude: 39-40.137167N39-39.717333N
Longitude: 074-18.764167W074-18.201167W
Elevation: 31.2 ft.38.6 ft.
Traffic pattern: leftright
Runway heading: 146 magnetic, 134 true326 magnetic, 314 true
Displaced threshold: 400 ft.400 ft.
Markings: nonprecision, in good conditionnonprecision, in good condition
Visual slope indicator: 2-light PAPI on left (4.00 degrees glide path)2-light PAPI on left (4.00 degrees glide path)
PAPI UNUSABLE 5 DEG LEFT OF COURSE.
Touchdown point: yes, no lightsyes, no lights
Obstructions: 58 ft. tree, 785 ft. from runway, 126 ft. right of centerline, 10:1 slope to clear64 ft. tree, 484 ft. from runway, 92 ft. right of centerline, 4:1 slope to clear
RY 32 70 FT HIGH TREELINE CROSSING EXTENDED CNTRLN BEGINNING 450 FT FM THLD.

Airport Ownership and Management from official FAA records

Ownership: Privately-owned
Owner: EAGLES NEST AIRPORT LLC
100 AIRPORT ROAD, PO BOX 129
WEST CREEK, NJ 08092
Phone 609-296-1229
Manager: PETER WEIDHORN
100 AIRPORT ROAD, PO BOX 129
WEST CREEK, NJ 08092
Phone 609-296-1229

Airport Operational Statistics

Aircraft based on the field: 38
Single engine airplanes: 36
Helicopters: 2
    
Aircraft operations: avg 20/week *
83% transient general aviation
17% local general aviation
* for 12-month period ending 06 October 2016

Additional Remarks

REMOTE CTL ACFT OPER ADJ TO RY.
PARACHUTE DROP ZONE SW CORNER OF ARPT
DEER ON & INVOF ARPT.
FOR CD CTC WASHINGTON ARTCC AT 703-771-3587.
BTN THE HRS OF SS-SR TAKE OFF RWY 32 ONLY, LDG RWY 14 ONLY.

Instrument Procedures

NOTE: All procedures below are presented as PDF files. If you need a reader for these files, you should download the free Adobe Reader.

NOT FOR NAVIGATION. Please procure official charts for flight.
FAA instrument procedures published for use from 15 July 2021 at 0901Z to 12 August 2021 at 0900z.

 
IAPs - Instrument Approach Procedures
RNAV (GPS)-A   download (169KB)
RNAV (GPS)-B   download (174KB)
NOTE: Special Take-Off Minimums/Departure Procedures apply   download (249KB)

Other nearby airports with instrument procedures:

KMJX - Ocean County Airport (16 nm N)
KACY - Atlantic City International Airport (18 nm SW)
N81 - Hammonton Municipal Airport (21 nm W)
KNEL - Lakehurst Maxfield Field Airport (22 nm N)
KWRI - McGuire Field (Joint Base Mc Guire Dix Lakehurst) Airport (25 nm NW)
 
Loc | Ops | Rwys | IFR | FBO | Links
Com | Nav | Svcs | Stats | Notes
Area around 31E (Eagles Nest Airport)
 
Road maps at: MapQuest Bing Google
 
Aerial photo
WARNING: Photo may not be current or correct
Aerial photo of 31E (Eagles Nest Airport)
Photo courtesy of FlyinPhilsPhotos.com
Photo taken 30-Sep-2007
looking north.

Do you have a better or more recent aerial photo of Eagles Nest Airport that you would like to share? If so, please send us your photo.

 
Sectional chart

 
Airport distance calculator
Flying to Eagles Nest Airport? Find the distance to fly.

From to 31E

Sunrise and sunset
Times for 04-Aug-2021
 Local
(UTC-4)
 Zulu
(UTC)
Morning civil twilight05:3009:30
Sunrise06:0010:00
Sunset20:0600:06
Evening civil twilight20:3600:36

Current date and time
Zulu (UTC)  05-Aug-2021 01:29:28
Local (UTC-4)  04-Aug-2021 21:29:28
 
METAR
KMJX 
16nm N 
AWOS-3 119.875 732-244-4450
270356Z AUTO 00000KT 7SM CLR 21/19 A2995 RMK AO2 SLP143 T02060194 TSNO
KACY 
17nm SW 
042354Z AUTO 04008KT 10SM OVC065 21/17 A3008
KNEL 
21nm N 
050100Z 00000KT 10SM OVC065 20/16 A3009 RMK AO2 SLP186 T02000156 $
KWRI 
25nm NW 
050056Z AUTO 04005KT 10SM OVC070 20/16 A3009 RMK AO2 SLP188 T01960162
KVAY 
29nm NW 
ASOS 119.325 609-267-1176
050054Z AUTO 04003KT 10SM OVC080 21/17 A3010 RMK AO2 SLP191 T02110167
KBLM 
31nm N 
AWOS-3 121.625 732-938-3330
041156Z AUTO 04003KT 10SM CLR 20/14 A3014 RMK AO2 SLP205 T02000144 10200 20172 50004
TAF
KACY 
17nm SW 
041953Z 0420/0518 10011KT P6SM VCSH SCT025 OVC070 TEMPO 0420/0422 BKN020 FM042200 05010G18KT 6SM BR OVC030 FM050100 03009KT P6SM OVC010 FM051500 34005KT P6SM OVC030 AMD NOT SKED
NOTAMs
Click for the latest NOTAMs
NOTAMs are issued by the DoD/FAA and will open in a separate window not controlled by AirNav.

 

 
 

FBO, Fuel Providers, and Aircraft Ground Support

  
 Business Name 
 
 Contact 
 
 Services / Description 
 
Fuel Prices
 
Comments
  
Eagles Nest Airport 609-296-1229
732-740-2510
[web site]
[email]
Airport management, Aviation fuel, Aircraft parking (ramp or tiedown), Hangars, Hangar leasing / sales, Passenger terminal and lounge, Aircraft maintenance, Skydiving, ...

More info about Eagles Nest Airport
Phillips 66
100LL
SS $5.45 
 Updated 04-Aug-2021
 
   2 read write
SS=Self service
Update Fuel Prices
 

Would you like to see your business listed on this page?

 If your business provides an interesting product or service to pilots, flight crews, aircraft, or users of the Eagles Nest Airport, you should consider listing it here.  To start the listing process, click on the button below
 
Add a business
 

Other Pages about Eagles Nest Airport

eaglesnestairport.com
 
Update a link
 
Copyright © AirNav, LLC. All rights reserved. Privacy Policy  Contact